Hourly Weather Trujillo

Today, 6 August, Thursday

Time Temperature Precipitation Wind Pressure Humidity
00:00 +18°C° 0 mm 2 mps 647 mmHg 90%
01:00 +18°C° 0 mm 2 mps 646 mmHg 89%
02:00 +19°C° 0 mm 1 mps 646 mmHg 88%
03:00 +19°C° 0 mm 1 mps 646 mmHg 87%
04:00 +19°C° 0 mm 1 mps 646 mmHg 86%
05:00 +20°C° 0 mm 1 mps 646 mmHg 84%
06:00 +20°C° 0 mm 1 mps 647 mmHg 83%
07:00 +21°C° 0 mm 1 mps 647 mmHg 81%
08:00 +22°C° 0.1 mm 1 mps 648 mmHg 76%
09:00 +24°C° 0.1 mm 1 mps 649 mmHg 71%
10:00 +26°C° 0.1 mm 1 mps 649 mmHg 66%
11:00 +26°C° 0.8 mm 1 mps 649 mmHg 70%
12:00 +25°C° 0.8 mm 1 mps 648 mmHg 74%
13:00 +25°C° 0.8 mm 1 mps 647 mmHg 79%
14:00 +24°C° 1.7 mm 1 mps 647 mmHg 81%
15:00 +24°C° 1.7 mm 1 mps 646 mmHg 84%
16:00 +23°C° 1.7 mm 1 mps 646 mmHg 86%
17:00 +22°C° 0.4 mm 1 mps 646 mmHg 88%
18:00 +21°C° 0.4 mm 1 mps 646 mmHg 90%
19:00 +20°C° 0.4 mm 1 mps 646 mmHg 92%
20:00 +20°C° 0 mm 1 mps 647 mmHg 91%
21:00 +19°C° 0 mm 2 mps 647 mmHg 89%
22:00 +19°C° 0 mm 2 mps 648 mmHg 88%
23:00 +19°C° 0 mm 2 mps 647 mmHg 87%

Tomorrow, 7 August, Friday

Time Temperature Precipitation Wind Pressure Humidity
00:00 +19°C° 0 mm 2 mps 647 mmHg 85%
01:00 +20°C° 0 mm 1 mps 647 mmHg 84%
02:00 +20°C° 0 mm 1 mps 647 mmHg 84%
03:00 +20°C° 0 mm 1 mps 647 mmHg 84%
04:00 +20°C° 0 mm 1 mps 647 mmHg 84%
05:00 +20°C° 0.1 mm 1 mps 647 mmHg 84%
06:00 +20°C° 0.1 mm 1 mps 648 mmHg 85%
07:00 +21°C° 0.1 mm 1 mps 648 mmHg 85%
08:00 +22°C° 0.1 mm 1 mps 649 mmHg 80%
09:00 +24°C° 0.1 mm 1 mps 650 mmHg 74%
10:00 +25°C° 0.1 mm 1 mps 650 mmHg 69%
11:00 +26°C° 0.9 mm 1 mps 650 mmHg 71%
12:00 +26°C° 0.9 mm 1 mps 649 mmHg 73%
13:00 +26°C° 0.9 mm 1 mps 649 mmHg 75%
14:00 +25°C° 1.3 mm 1 mps 648 mmHg 79%
15:00 +25°C° 1.3 mm 1 mps 647 mmHg 83%
16:00 +24°C° 1.3 mm 1 mps 647 mmHg 87%
17:00 +23°C° 0.6 mm 1 mps 647 mmHg 89%
18:00 +22°C° 0.6 mm 1 mps 647 mmHg 91%
19:00 +20°C° 0.6 mm 1 mps 647 mmHg 93%
20:00 +19°C° 0.4 mm 2 mps 648 mmHg 92%
21:00 +19°C° 0.4 mm 2 mps 648 mmHg 92%
22:00 +19°C° 0.4 mm 2 mps 648 mmHg 91%
23:00 +19°C° 0.2 mm 2 mps 648 mmHg 90%

Day after tomorrow, 8 August, Saturday

Time Temperature Precipitation Wind Pressure Humidity
00:00 +19°C° 0.2 mm 2 mps 648 mmHg 89%
01:00 +19°C° 0.2 mm 2 mps 648 mmHg 89%
02:00 +20°C° 0.2 mm 1 mps 648 mmHg 89%
03:00 +20°C° 0.2 mm 1 mps 647 mmHg 89%
04:00 +20°C° 0.2 mm 1 mps 647 mmHg 89%
05:00 +20°C° 0 mm 1 mps 648 mmHg 88%
06:00 +20°C° 0 mm 1 mps 648 mmHg 87%
07:00 +21°C° 0 mm 1 mps 649 mmHg 86%
08:00 +23°C° 0 mm 1 mps 649 mmHg 78%
09:00 +25°C° 0 mm 1 mps 650 mmHg 70%
10:00 +27°C° 0 mm 1 mps 651 mmHg 61%
11:00 +27°C° 0.5 mm 1 mps 650 mmHg 63%
12:00 +27°C° 0.5 mm 1 mps 649 mmHg 65%
13:00 +27°C° 0.5 mm 1 mps 649 mmHg 68%
14:00 +26°C° 1.1 mm 1 mps 648 mmHg 72%
15:00 +25°C° 1.1 mm 1 mps 648 mmHg 77%
16:00 +25°C° 1.1 mm 1 mps 647 mmHg 82%
17:00 +23°C° 0.6 mm 1 mps 647 mmHg 85%
18:00 +22°C° 0.6 mm 1 mps 647 mmHg 88%
19:00 +20°C° 0.6 mm 2 mps 647 mmHg 92%
20:00 +19°C° 0.2 mm 2 mps 647 mmHg 91%
21:00 +19°C° 0.2 mm 2 mps 648 mmHg 90%
22:00 +19°C° 0.2 mm 2 mps 648 mmHg 89%
23:00 +19°C° 0.1 mm 2 mps 648 mmHg 88%

9 August, Sunday

Time Temperature Precipitation Wind Pressure Humidity
00:00 +20°C° 0.1 mm 1 mps 648 mmHg 87%
01:00 +20°C° 0.1 mm 1 mps 648 mmHg 86%
02:00 +20°C° 0.1 mm 1 mps 647 mmHg 86%
03:00 +20°C° 0.1 mm 1 mps 647 mmHg 86%
04:00 +19°C° 0.1 mm 1 mps 647 mmHg 86%
05:00 +20°C° 0.1 mm 1 mps 647 mmHg 84%
06:00 +21°C° 0.1 mm 1 mps 648 mmHg 82%
07:00 +22°C° 0.1 mm 1 mps 649 mmHg 80%
08:00 +23°C° 0.1 mm 1 mps 649 mmHg 76%
09:00 +24°C° 0.1 mm 1 mps 650 mmHg 72%
10:00 +26°C° 0.1 mm 1 mps 650 mmHg 68%
11:00 +26°C° 1.4 mm 1 mps 650 mmHg 71%
12:00 +26°C° 1.4 mm 1 mps 649 mmHg 75%
13:00 +25°C° 1.4 mm 1 mps 648 mmHg 78%
14:00 +25°C° 1.3 mm 1 mps 648 mmHg 81%
15:00 +24°C° 1.3 mm 1 mps 647 mmHg 85%
16:00 +23°C° 1.3 mm 1 mps 646 mmHg 88%
17:00 +23°C° 0.7 mm 1 mps 646 mmHg 89%
18:00 +22°C° 0.7 mm 1 mps 646 mmHg 91%
19:00 +21°C° 0.7 mm 1 mps 646 mmHg 93%
20:00 +20°C° 0 mm 1 mps 647 mmHg 92%
21:00 +20°C° 0 mm 1 mps 647 mmHg 92%
22:00 +20°C° 0 mm 1 mps 647 mmHg 91%
23:00 +18°C° 0.2 mm 2 mps 647 mmHg 91%

10 August, Monday

Time Temperature Precipitation Wind Pressure Humidity
00:00 +18°C° 0.2 mm 2 mps 646 mmHg 90%
01:00 +18°C° 0.2 mm 2 mps 646 mmHg 89%
02:00 +19°C° 0.2 mm 1 mps 646 mmHg 88%
03:00 +19°C° 0.2 mm 1 mps 646 mmHg 87%
04:00 +19°C° 0.2 mm 1 mps 645 mmHg 86%
05:00 +20°C° 0 mm 1 mps 646 mmHg 84%
06:00 +20°C° 0 mm 1 mps 647 mmHg 82%
07:00 +21°C° 0 mm 1 mps 648 mmHg 80%
08:00 +23°C° 0.1 mm 1 mps 648 mmHg 76%
09:00 +24°C° 0.1 mm 1 mps 649 mmHg 73%
10:00 +26°C° 0.1 mm 1 mps 649 mmHg 69%
11:00 +26°C° 0.8 mm 1 mps 649 mmHg 70%
12:00 +26°C° 0.8 mm 1 mps 648 mmHg 72%
13:00 +26°C° 0.8 mm 1 mps 647 mmHg 74%
14:00 +25°C° 1.2 mm 1 mps 647 mmHg 77%
15:00 +25°C° 1.2 mm 1 mps 646 mmHg 81%
16:00 +24°C° 1.2 mm 1 mps 645 mmHg 84%
17:00 +23°C° 0.7 mm 1 mps 645 mmHg 87%
18:00 +22°C° 0.7 mm 1 mps 645 mmHg 90%
19:00 +21°C° 0.7 mm 1 mps 645 mmHg 93%
20:00 +20°C° 0.4 mm 1 mps 646 mmHg 93%
21:00 +20°C° 0.4 mm 1 mps 646 mmHg 92%
22:00 +19°C° 0.4 mm 1 mps 646 mmHg 91%
23:00 +19°C° 0 mm 1 mps 646 mmHg 91%

11 August, Tuesday

Time Temperature Precipitation Wind Pressure Humidity
00:00 +19°C° 0 mm 1 mps 645 mmHg 90%
01:00 +19°C° 0 mm 1 mps 645 mmHg 89%
02:00 +19°C° 0 mm 1 mps 645 mmHg 88%
03:00 +19°C° 0 mm 1 mps 645 mmHg 86%
04:00 +19°C° 0 mm 1 mps 644 mmHg 85%
05:00 +20°C° 0 mm 1 mps 645 mmHg 83%
06:00 +20°C° 0 mm 1 mps 646 mmHg 80%
07:00 +21°C° 0 mm 1 mps 646 mmHg 78%
08:00 +23°C° 0 mm 1 mps 647 mmHg 72%
09:00 +25°C° 0 mm 1 mps 648 mmHg 67%
10:00 +27°C° 0 mm 1 mps 648 mmHg 62%
11:00 +27°C° 1.1 mm 1 mps 648 mmHg 66%
12:00 +27°C° 1.1 mm 1 mps 647 mmHg 70%
13:00 +27°C° 1.1 mm 1 mps 646 mmHg 74%
14:00 +26°C° 1.4 mm 1 mps 646 mmHg 78%
15:00 +25°C° 1.4 mm 1 mps 645 mmHg 82%
16:00 +24°C° 1.4 mm 1 mps 644 mmHg 86%
17:00 +23°C° 1.3 mm 1 mps 644 mmHg 89%
18:00 +22°C° 1.3 mm 1 mps 644 mmHg 91%
19:00 +21°C° 1.3 mm 1 mps 645 mmHg 94%
20:00 +21°C° 0.1 mm 1 mps 645 mmHg 94%
21:00 +21°C° 0.1 mm 1 mps 645 mmHg 93%
22:00 +20°C° 0.1 mm 1 mps 646 mmHg 93%
23:00 +20°C° 0.1 mm 1 mps 645 mmHg 93%
Show more